BEIDOU-3 G4

Last updated on Mon Oct 14 2024 00:02:42 GMT+0000 (Coordinated Universal Time)

1 56564U 23066A 24287.46854894 -.00000116 00000+0 00000+0 0 9991 2 56564 1.8343 288.6580 0005726 240.3257 182.2356 1.00272351 5268
UTC large
Height (km)
Speed (km/s)
/
Latitude / Longitude
Inclination (degrees)
Orbital Period (minutes)
Azimuth
Elevation
Range (km)
Doppler Factor

Next 0 passes for location: London (51.5072 / 0.1276)

Sorry there are no passes over London.